This demonstration page uses our WeatherBlox Daily Observations layout. Learn more.

Left ArrowRight Arrow

Hourly Observations for March 9, 2021

Temp ( °F °C ) Dew Point ( °F °C ) Humidity (%) Winds ( mph kmh ) Pressure ( in mb ) Visibility ( mi km ) Precip ( " mm )
12:53 am 00:53 Clear 40 4.4 30 -1.1 68 68 Calm 30.50 1033 10 16 0.00 0.00
1:53 am 01:53 Clear 38 3.3 31 -0.6 76 76 Calm 30.49 1033 10 16 0.00 0.00
2:53 am 02:53 Clear 36 2.2 30 -1.1 79 79 Calm 30.48 1032 10 16 0.00 0.00
3:53 am 03:53 Clear 34 1.1 30 -1.1 85 85 Calm 30.48 1032 10 16 0.00 0.00
4:53 am 04:53 Clear 34 1.1 30 -1.1 85 85 Calm 30.48 1032 10 16 0.00 0.00
5:53 am 05:53 Clear 33 0.6 28 -2.2 82 82 Calm 30.50 1033 10 16 0.00 0.00
6:53 am 06:53 Clear 33 0.6 30 -1.1 89 89 Calm 30.52 1034 10 16 0.00 0.00
7:53 am 07:53 Sunny 36 2.2 33 0.6 89 89 Calm 30.54 1034 10 16 0.00 0.00
8:53 am 08:53 Sunny 45 7.2 34 1.1 66 66 Calm 30.55 1035 10 16 0.00 0.00
9:53 am 09:53 Sunny 54 12.2 29 -1.7 38 38 WSW 7 11 30.56 1035 8 13 0.00 0.00
10:53 am 10:53 Sunny 60 15.6 29 -1.7 31 31 SSW 10 17 30.56 1035 10 16 0.00 0.00
11:53 am 11:53 Sunny 65 18.3 29 -1.7 26 26 VRB 5 7 30.55 1034 10 16 0.00 0.00
12:53 pm 12:53 Sunny 66 18.9 22 -5.6 19 19 S 5 7 30.51 1033 10 16 0.00 0.00
1:53 pm 13:53 Sunny 67 19.4 23 -5 19 19 VRB 5 7 30.47 1032 10 16 0.00 0.00
2:53 pm 14:53 Sunny 69 20.6 22 -5.6 17 17 S 5 7 30.45 1031 10 16 0.00 0.00
3:53 pm 15:53 Sunny 69 20.6 21 -6.1 16 16 SSW 7 11 30.43 1030 10 16 0.00 0.00
4:53 pm 16:53 Sunny 68 20 23 -5 18 18 SSW 3 6 30.43 1030 10 16 0.00 0.00
5:53 pm 17:53 Sunny 67 19.4 25 -3.9 20 20 S 7 11 30.42 1030 9 14 0.00 0.00
6:53 pm 18:53 Clear 64 17.8 27 -2.8 25 25 SSE 3 6 30.42 1030 9 14 0.00 0.00
7:53 pm 19:53 Clear 55 12.8 30 -1.1 38 38 Calm 30.43 1030 10 16 0.00 0.00
8:53 pm 20:53 Clear 51 10.6 32 0 48 48 Calm 30.42 1030 9 14 0.00 0.00
9:53 pm 21:53 Clear 47 8.3 33 0.6 59 59 Calm 30.43 1031 9 14 0.00 0.00
10:53 pm 22:53 Clear 46 7.8 33 0.6 61 61 Calm 30.44 1031 9 14 0.00 0.00
11:53 pm 23:53 Clear 42 5.6 33 0.6 71 71 Calm 30.43 1031 9 14 0.00 0.00

Powered by AerisWeather